Weather Roundup
Issued by NWS Springfield, MO

Home | Current Version | Previous Version | Text Only | Print | Product List | Glossary On
Versions: 1 2 3 4 5 6 7 8 9 10 11 12 13 14 15 16 17 18 19 20 21 22 23 24 25 26 27 28 29 30 31 32 33 34 35 36 37 38 39 40 41 42 43 44 45 46 47 48 49 50
000
NZUS99 KSGF 261007
HRRSGF

HOURLY WEATHER
NATIONAL WEATHER SERVICE SPRINGFIELD MO
400 AM CST SUN FEB 26 2017

......SGF CWA......

CITY           SKY/WX    TMP DP  RH WIND       PRES   REMARKS
SPRINGFIELD    PTCLDY    31  17  56 SE10      30.01F WCI  22
JOPLIN         CLOUDY    35  20  54 S7        30.03S WCI  29
WEST PLAINS    CLEAR     30  10  43 SE5       30.10S WCI  25
ROLLA          CLEAR     27  12  53 S8        30.06S WCI  19
OSAGE BEACH    CLEAR     26  16  65 SE7       30.06F WCI  18
BRANSON        CLOUDY    34  14  44 SE7       30.06F WCI  28

......SURROUNDING SGF CWA......

CITY           SKY/WX    TMP DP  RH WIND       PRES   REMARKS
CHANUTE        CLOUDY    36  18  48 S7        30.00S WCI  30
PARSONS        CLOUDY    37  18  46 S3        30.02R
COFFEYVILLE    CLOUDY    33  21  61 S7        30.02S WCI  27
EMPORIA        CLOUDY    35  18  49 S9        29.98S WCI  28
GROVE OK       PTCLDY    30  23  74 CALM      30.05S
ROGERS AR      PTCLDY    31  25  78 E8        30.04F WCI  23
SILOAM SPRINGS CLEAR     28  18  64 E5        30.03S WCI  23
HARRISON AR    CLEAR     27  20  75 SE6       30.06F WCI  20
NEAR YELLVILLE PTCLDY    27  19  74 CALM      30.07F

......KANSAS AND MISSOURI......

CITY           SKY/WX    TMP DP  RH WIND       PRES   REMARKS
KANSAS CTY INT PTCLDY    34  15  46 SW13      29.97S WCI  25
DOWNTOWN KC    CLOUDY    38  13  35 SW13      29.99S WCI  30
COLUMBIA       CLEAR     27  15  61 S12       30.04S WCI  17
SEDALIA        PTCLDY    34  15  46 S12       30.02F WCI  25
ST JOSEPH      PTCLDY    30  17  58 SW6       29.98S WCI  24
ST LOUIS       CLEAR     32  14  47 S10       30.10F WCI  24
SPIRIT OF STL  CLEAR     22  16  78 CALM      30.10F
KIRKSVILLE     CLOUDY    31  15  52 S9        29.98S WCI  23
WICHITA        CLOUDY    35  20  54 SE7       29.95F WCI  29
TOPEKA         CLOUDY    37  17  44 S8        29.98S WCI  31
OLATHE         CLOUDY    32  16  51 S8        29.98F WCI  25

......TENNESSEE......

CITY           SKY/WX    TMP DP  RH WIND       PRES   REMARKS
MEMPHIS        PTCLDY    32  23  69 CALM      30.17R
NASHVILLE      CLEAR     30  22  72 S3        30.19R

......ARKANSAS.......

CITY           SKY/WX    TMP DP  RH WIND       PRES   REMARKS
FAYETTEVILLE   PTCLDY    23  21  92 CALM      30.04F
FT SMITH       PTCLDY    33  27  78 NE5       30.06F WCI  29
LITTLE ROCK    PTCLDY    31  30  96 CALM      30.13F

......OKLAHOMA.......

CITY           SKY/WX    TMP DP  RH WIND       PRES   REMARKS
TULSA          CLOUDY    39  19  44 SE12      29.99F WCI  32
PONCA CITY     CLOUDY    38  19  46 S10       29.94F WCI  31
MCALESTER      CLEAR     33  21  61 E6        30.01F WCI  28
OKLAHOMA CITY  CLOUDY    36  22  56 S12       29.93F WCI  28

......IOWA............

CITY           SKY/WX    TMP DP  RH WIND       PRES   REMARKS
DES MOINES     MOCLDY    32  17  54 SW15      29.85F WCI  22
QUAD CITIES    CLOUDY    30  16  56 S13       29.97F WCI  20

......ILLINOIS........

CITY           SKY/WX    TMP DP  RH WIND       PRES   REMARKS
QUINCY         CLOUDY    30  14  51 S10       30.02F WCI  21
CHICAGO        CLOUDY    25  19  78 S5        30.01F WCI  19




USA.gov is the U.S. government's official web portal to all federal, state and local government web resources and services.